Regional Weather Roundup
Issued by NWS

Home | Current Version | Previous Version | Graphics & Text | Print | Product List | Glossary On
Versions: 1 2 3 4 5 6 7 8 9 10 11 12 13 14 15 16 17 18 19 20 21 22 23 24 25 26 27 28 29 30 31 32 33 34 35 36 37 38 39 40 41 42 43 44 45 46 47 48 49 50
000
ASUS45 KCYS 220110
RWRWY

WYOMING REGIONAL WEATHER ROUNDUP
NATIONAL WEATHER SERVICE CHEYENNE WY
700 PM MDT MON JUL 21 2014

NOTE:  "FAIR" INDICATES FEW OR NO CLOUDS BELOW 12,000 FEET
WITH NO SIGNIFICANT WEATHER AND/OR OBSTRUCTIONS TO VISIBILITY.

WYZ001-220200-
YELLOWSTONE NATIONAL PARK

CITY           SKY/WX    TMP DP  RH WIND       PRES   REMARKS
LK YELLOWSTONE   N/A     52  46  80 CALM      30.35R
W YELLOWSTONE  NOT AVBL

$$
WYZ002>013-054>058-071-098>099-220200-
NORTHERN WYOMING

CITY           SKY/WX    TMP DP  RH WIND       PRES   REMARKS
JACKSON        SUNNY     64  52  63 CALM      30.24R
CODY           PTSUNNY   75  52  43 N8        30.09R
GREYBULL       PTSUNNY   92  42  17 N12       29.96R
WORLAND        CLOUDY    84  49  29 N6        29.99R
SHERIDAN       PTSUNNY   83  55  38 NW14      30.02R
BUFFALO        PTSUNNY   74  54  49 NW12      30.10R
GILLETTE       MOSUNNY   82  47  29 N9        30.00R
HULETT         FAIR      82  52  34 MISG      30.00
NEWCASTLE      FAIR      90  41  18 N22G41    29.96

$$
WYZ014>020-022>026-101>103-220200-
CENTRAL WYOMING

CITY           SKY/WX    TMP DP  RH WIND       PRES   REMARKS
BIG PINEY      SUNNY     73  42  32 N22G29    30.26R
PINEDALE       PTCLDY    70  39  32 NW16      30.28F
DUBOIS         FAIR      57  41  54 W13G22    30.30F
LANDER         MOSUNNY   88  34  14 NW9       30.09R
RIVERTON       LGT RAIN  77  40  26 NW38G55   30.12R SQUALL
CASPER         SUNNY     88  35  15 W13       30.05S
DOUGLAS        SUNNY     91  33  12 W16       30.03R

$$
WYZ021-027>030-104>119-220200-
SOUTHERN WYOMING

CITY           SKY/WX    TMP DP  RH WIND       PRES   REMARKS
EVANSTON       SUNNY     81  25  12 S18G29    30.25S
KEMMERER       PTCLDY   N/A N/A N/A W18G26    30.26S
ROCK SPRINGS   MOSUNNY   85  30  13 NW13G20   30.20S
DIXON          FAIR      88  26  10 W10       30.23S
RAWLINS        MOSUNNY   84  24  11 SW8G44    30.22R
SARATOGA       FAIR      86  23  10 W17G23    30.26R
LARAMIE        MOSUNNY   80  34  19 SW14      30.27R
CHEYENNE       PTSUNNY   82  40  22 S13       30.19R
TORRINGTON     MOSUNNY   88  53  30 SE12      29.97S
PINE BLUFFS    FAIR      84  46  26 NW8       30.12R

$$


USA.gov is the U.S. government's official web portal to all federal, state and local government web resources and services.